Time,TemperatureF,DewpointF,PressureIn,WindDirection,WindDirectionDegrees,WindSpeedMPH,WindSpeedGustMPH,Humidity,HourlyPrecipIn,Conditions,Clouds,dailyrainin,SoftwareType,DateUTC
2013-06-11 00:05:00,62.6,62.3,29.77,NE,45,0.0,-999.0,99,-99.99,,,0.00,Acu-Link.com,2013-06-11 04:05:00,
2013-06-11 00:20:00,62.6,62.3,29.78,SE,135,0.0,-999.0,99,-99.99,,,0.00,Acu-Link.com,2013-06-11 04:20:00,
2013-06-11 00:35:00,62.6,62.3,29.78,NE,45,2.7,-999.0,99,-99.99,,,0.00,Acu-Link.com,2013-06-11 04:35:00,
2013-06-11 00:50:00,62.6,62.3,29.77,East,90,0.0,-999.0,99,-99.99,,,0.00,Acu-Link.com,2013-06-11 04:50:00,
2013-06-11 01:06:00,62.6,62.3,29.77,SE,135,0.0,-999.0,99,-99.99,,,0.00,Acu-Link.com,2013-06-11 05:06:00,
2013-06-11 01:21:00,62.6,62.3,29.77,SE,135,0.0,-999.0,99,-99.99,,,0.00,Acu-Link.com,2013-06-11 05:21:00,
2013-06-11 01:36:00,62.6,62.3,29.77,WNW,292,0.0,-999.0,99,-99.99,,,0.00,Acu-Link.com,2013-06-11 05:36:00,
2013-06-11 01:52:00,62.6,62.3,29.77,ESE,112,1.6,-999.0,99,-99.99,,,0.00,Acu-Link.com,2013-06-11 05:52:00,
2013-06-11 02:07:00,62.6,62.3,29.77,SE,135,0.0,-999.0,99,-99.99,,,0.00,Acu-Link.com,2013-06-11 06:07:00,
2013-06-11 02:22:00,62.6,62.3,29.77,SE,135,1.1,-999.0,99,-99.99,,,0.00,Acu-Link.com,2013-06-11 06:22:00,
2013-06-11 02:37:00,62.6,62.3,29.77,ESE,112,1.6,-999.0,99,-99.99,,,0.00,Acu-Link.com,2013-06-11 06:37:00,
2013-06-11 02:53:00,62.6,62.3,29.77,North,0,0.0,-999.0,99,-99.99,,,0.00,Acu-Link.com,2013-06-11 06:53:00,
2013-06-11 03:08:00,62.6,62.3,29.78,West,270,0.0,-999.0,99,-99.99,,,0.00,Acu-Link.com,2013-06-11 07:08:00,
2013-06-11 03:23:00,62.6,62.3,29.77,NE,45,1.6,-999.0,99,-99.99,,,0.00,Acu-Link.com,2013-06-11 07:23:00,
2013-06-11 03:38:00,62.6,62.3,29.77,SSW,202,2.7,-999.0,99,-99.99,,,0.00,Acu-Link.com,2013-06-11 07:38:00,
2013-06-11 03:53:00,62.6,62.3,29.77,West,270,0.0,-999.0,99,-99.99,,,0.00,Acu-Link.com,2013-06-11 07:53:00,
2013-06-11 04:09:00,62.6,62.3,29.77,SW,225,0.0,-999.0,99,-99.99,,,0.00,Acu-Link.com,2013-06-11 08:09:00,
2013-06-11 04:24:00,62.6,62.3,29.77,WSW,247,0.0,-999.0,99,-99.99,,,0.00,Acu-Link.com,2013-06-11 08:24:00,
2013-06-11 04:40:00,62.6,62.3,29.78,ENE,67,0.0,-999.0,99,-99.99,,,0.00,Acu-Link.com,2013-06-11 08:40:00,
2013-06-11 04:55:00,62.6,62.3,29.78,SSE,157,1.6,-999.0,99,-99.99,,,0.00,Acu-Link.com,2013-06-11 08:55:00,
2013-06-11 05:10:00,62.6,62.3,29.78,SW,225,0.0,-999.0,99,-99.99,,,0.00,Acu-Link.com,2013-06-11 09:10:00,
2013-06-11 05:25:00,62.6,62.3,29.78,SW,225,0.0,-999.0,99,-99.99,,,0.00,Acu-Link.com,2013-06-11 09:25:00,
2013-06-11 05:40:00,64.4,64.1,29.78,SW,225,1.1,-999.0,99,-99.99,,,0.00,Acu-Link.com,2013-06-11 09:40:00,
2013-06-11 05:56:00,64.4,64.1,29.79,West,270,0.0,-999.0,99,-99.99,,,0.00,Acu-Link.com,2013-06-11 09:56:00,
2013-06-11 06:26:00,64.4,64.1,29.81,SW,225,2.0,-999.0,99,-99.99,,,0.00,Acu-Link.com,2013-06-11 10:26:00,
2013-06-11 06:57:00,64.4,64.1,29.81,NNE,22,1.6,-999.0,99,-99.99,,,0.00,Acu-Link.com,2013-06-11 10:57:00,
2013-06-11 07:12:00,64.4,64.1,29.82,WSW,247,2.7,-999.0,99,-99.99,,,0.00,Acu-Link.com,2013-06-11 11:12:00,
2013-06-11 07:27:00,64.4,64.1,29.83,West,270,1.6,-999.0,99,-99.99,,,0.00,Acu-Link.com,2013-06-11 11:27:00,
2013-06-11 07:43:00,64.4,64.1,29.84,SSW,202,3.1,-999.0,99,-99.99,,,0.01,Acu-Link.com,2013-06-11 11:43:00,
2013-06-11 07:58:00,64.4,64.1,29.84,NNW,337,3.1,-999.0,99,-99.99,,,0.01,Acu-Link.com,2013-06-11 11:58:00,
2013-06-11 08:13:00,64.4,64.1,29.85,West,270,7.2,-999.0,99,-99.99,,,0.01,Acu-Link.com,2013-06-11 12:13:00,
2013-06-11 08:28:00,64.4,63.8,29.86,West,270,1.1,-999.0,98,-99.99,,,0.01,Acu-Link.com,2013-06-11 12:28:00,
2013-06-11 08:44:00,64.4,63.5,29.86,West,270,1.6,-999.0,97,-99.99,,,0.01,Acu-Link.com,2013-06-11 12:44:00,
2013-06-11 08:59:00,64.4,62.9,29.87,NE,45,1.1,-999.0,95,-99.99,,,0.01,Acu-Link.com,2013-06-11 12:59:00,
2013-06-11 09:14:00,64.4,62.6,29.87,WNW,292,0.0,-999.0,94,-99.99,,,0.01,Acu-Link.com,2013-06-11 13:14:00,
2013-06-11 09:29:00,64.4,62.3,29.87,West,270,1.1,-999.0,93,-99.99,,,0.01,Acu-Link.com,2013-06-11 13:29:00,
2013-06-11 09:44:00,66.2,63.8,29.87,WNW,292,2.7,-999.0,92,-99.99,,,0.01,Acu-Link.com,2013-06-11 13:44:00,
2013-06-11 10:00:00,66.2,63.5,29.87,North,0,2.0,-999.0,91,-99.99,,,0.01,Acu-Link.com,2013-06-11 14:00:00,
2013-06-11 10:15:00,66.2,63.5,29.88,WNW,292,1.1,-999.0,91,-99.99,,,0.01,Acu-Link.com,2013-06-11 14:15:00,
2013-06-11 10:30:00,68.0,64.3,29.88,SW,225,2.0,-999.0,88,-99.99,,,0.01,Acu-Link.com,2013-06-11 14:30:00,
2013-06-11 10:45:00,69.8,65.1,29.87,SW,225,0.0,-999.0,85,-99.99,,,0.01,Acu-Link.com,2013-06-11 14:45:00,
2013-06-11 11:01:00,69.8,64.4,29.88,WNW,292,2.0,-999.0,83,-99.99,,,0.01,Acu-Link.com,2013-06-11 15:01:00,
2013-06-11 11:16:00,69.8,63.7,29.88,ENE,67,0.0,-999.0,81,-99.99,,,0.01,Acu-Link.com,2013-06-11 15:16:00,
2013-06-11 11:47:00,71.6,64.4,29.88,SSW,202,3.1,-999.0,78,-99.99,,,0.01,Acu-Link.com,2013-06-11 15:47:00,
2013-06-11 12:02:00,71.6,64.0,29.88,NE,45,3.6,-999.0,77,-99.99,,,0.78,Acu-Link.com,2013-06-11 16:02:00,
2013-06-11 12:17:00,71.6,62.9,29.89,NNE,22,3.6,-999.0,74,-99.99,,,0.78,Acu-Link.com,2013-06-11 16:17:00,
2013-06-11 12:33:00,73.4,64.6,29.89,WNW,292,2.0,-999.0,74,-99.99,,,0.78,Acu-Link.com,2013-06-11 16:33:00,
2013-06-11 12:48:00,71.6,63.2,29.89,WNW,292,5.6,-999.0,75,-99.99,,,0.78,Acu-Link.com,2013-06-11 16:48:00,
2013-06-11 13:03:00,71.6,63.2,29.89,NNW,337,5.1,-999.0,75,-99.99,,,0.78,Acu-Link.com,2013-06-11 17:03:00,
2013-06-11 13:18:00,71.6,63.2,29.90,SW,225,6.3,-999.0,75,-99.99,,,0.78,Acu-Link.com,2013-06-11 17:18:00,
2013-06-11 13:33:00,71.6,62.1,29.90,NW,315,5.1,-999.0,72,-99.99,,,0.78,Acu-Link.com,2013-06-11 17:33:00,
2013-06-11 13:48:00,71.6,62.9,29.90,West,270,2.7,-999.0,74,-99.99,,,0.78,Acu-Link.com,2013-06-11 17:48:00,
2013-06-11 14:04:00,73.4,63.0,29.90,NNE,22,2.7,-999.0,70,-99.99,,,0.78,Acu-Link.com,2013-06-11 18:04:00,
2013-06-11 14:19:00,73.4,62.6,29.90,West,270,4.0,-999.0,69,-99.99,,,0.78,Acu-Link.com,2013-06-11 18:19:00,
2013-06-11 14:34:00,73.4,62.2,29.90,South,180,1.6,-999.0,68,-99.99,,,0.78,Acu-Link.com,2013-06-11 18:34:00,
2013-06-11 14:50:00,75.2,64.3,29.89,SSW,202,1.6,-999.0,69,-99.99,,,0.78,Acu-Link.com,2013-06-11 18:50:00,
2013-06-11 15:05:00,77.0,65.2,29.89,West,270,5.6,-999.0,67,-99.99,,,0.78,Acu-Link.com,2013-06-11 19:05:00,
2013-06-11 15:20:00,75.2,65.5,29.88,West,270,3.1,-999.0,72,-99.99,,,0.78,Acu-Link.com,2013-06-11 19:20:00,
2013-06-11 15:35:00,77.0,66.0,29.89,WNW,292,2.7,-999.0,69,-99.99,,,0.78,Acu-Link.com,2013-06-11 19:35:00,
2013-06-11 15:51:00,77.0,65.6,29.87,West,270,2.0,-999.0,68,-99.99,,,0.78,Acu-Link.com,2013-06-11 19:51:00,
2013-06-11 16:36:00,77.0,66.4,29.88,South,180,1.6,-999.0,70,-99.99,,,0.78,Acu-Link.com,2013-06-11 20:36:00,
2013-06-11 16:52:00,78.8,68.2,29.87,South,180,1.6,-999.0,70,-99.99,,,0.78,Acu-Link.com,2013-06-11 20:52:00,
2013-06-11 17:07:00,78.8,68.2,29.87,WSW,247,1.6,-999.0,70,-99.99,,,0.78,Acu-Link.com,2013-06-11 21:07:00,
2013-06-11 17:22:00,78.8,67.3,29.86,West,270,2.0,-999.0,68,-99.99,,,0.78,Acu-Link.com,2013-06-11 21:22:00,
2013-06-11 17:37:00,80.6,68.2,29.85,SSW,202,2.0,-999.0,66,-99.99,,,0.78,Acu-Link.com,2013-06-11 21:37:00,
2013-06-11 17:53:00,78.8,66.0,29.86,West,270,4.7,-999.0,65,-99.99,,,0.78,Acu-Link.com,2013-06-11 21:53:00,
2013-06-11 18:08:00,78.8,66.9,29.86,SSW,202,2.7,-999.0,67,-99.99,,,0.78,Acu-Link.com,2013-06-11 22:08:00,
2013-06-11 18:23:00,78.8,66.9,29.86,NNW,337,1.6,-999.0,67,-99.99,,,0.78,Acu-Link.com,2013-06-11 22:23:00,
2013-06-11 18:38:00,78.8,67.7,29.85,NNW,337,2.0,-999.0,69,-99.99,,,0.78,Acu-Link.com,2013-06-11 22:38:00,
2013-06-11 18:54:00,78.8,68.2,29.86,NNE,22,2.0,-999.0,70,-99.99,,,0.78,Acu-Link.com,2013-06-11 22:54:00,
2013-06-11 19:09:00,78.8,67.7,29.85,West,270,2.0,-999.0,69,-99.99,,,0.78,Acu-Link.com,2013-06-11 23:09:00,
2013-06-11 19:24:00,78.8,68.2,29.85,SSW,202,1.6,-999.0,70,-99.99,,,0.78,Acu-Link.com,2013-06-11 23:24:00,
2013-06-11 19:39:00,78.8,68.2,29.85,SSW,202,1.6,-999.0,70,-99.99,,,0.78,Acu-Link.com,2013-06-11 23:39:00,
2013-06-11 19:55:00,78.8,68.2,29.86,SSW,202,1.6,-999.0,70,-99.99,,,0.78,Acu-Link.com,2013-06-11 23:55:00,
2013-06-11 20:10:00,78.8,68.2,29.85,SSW,202,1.6,-999.0,70,-99.99,,,0.78,Acu-Link.com,2013-06-12 00:10:00,
2013-06-11 20:25:00,75.2,68.2,29.86,NE,45,0.0,-999.0,79,-99.99,,,0.78,Acu-Link.com,2013-06-12 00:25:00,
2013-06-11 20:41:00,73.4,66.5,29.86,ESE,112,0.0,-999.0,79,-99.99,,,0.78,Acu-Link.com,2013-06-12 00:41:00,
2013-06-11 20:56:00,71.6,65.1,29.86,East,90,0.0,-999.0,80,-99.99,,,0.78,Acu-Link.com,2013-06-12 00:56:00,
2013-06-11 21:26:00,71.6,66.5,29.86,ESE,112,0.0,-999.0,84,-99.99,,,0.78,Acu-Link.com,2013-06-12 01:26:00,
2013-06-11 21:42:00,69.8,65.1,29.86,SE,135,0.0,-999.0,85,-99.99,,,0.78,Acu-Link.com,2013-06-12 01:42:00,
2013-06-11 21:57:00,69.8,65.7,29.86,SE,135,0.0,-999.0,87,-99.99,,,0.78,Acu-Link.com,2013-06-12 01:57:00,
2013-06-11 22:12:00,69.8,65.7,29.86,SE,135,0.0,-999.0,87,-99.99,,,0.78,Acu-Link.com,2013-06-12 02:12:00,
2013-06-11 22:28:00,69.8,65.7,29.87,SE,135,0.0,-999.0,87,-99.99,,,0.78,Acu-Link.com,2013-06-12 02:28:00,
2013-06-11 22:43:00,68.0,65.3,29.86,ENE,67,0.0,-999.0,91,-99.99,,,0.78,Acu-Link.com,2013-06-12 02:43:00,
2013-06-11 22:58:00,68.0,65.9,29.87,SSE,157,0.0,-999.0,93,-99.99,,,0.78,Acu-Link.com,2013-06-12 02:58:00,
2013-06-11 23:13:00,68.0,66.5,29.87,SE,135,0.0,-999.0,95,-99.99,,,0.78,Acu-Link.com,2013-06-12 03:13:00,
2013-06-11 23:29:00,68.0,66.5,29.87,NNW,337,0.0,-999.0,95,-99.99,,,0.78,Acu-Link.com,2013-06-12 03:29:00,
2013-06-11 23:44:00,68.0,66.5,29.87,ESE,112,0.0,-999.0,95,-99.99,,,0.78,Acu-Link.com,2013-06-12 03:44:00,
2013-06-11 23:59:00,66.2,65.0,29.87,ENE,67,0.0,-999.0,96,-99.99,,,0.78,Acu-Link.com,2013-06-12 03:59:00,